Wind_Speed
13 13 13 13 14 14 15 15 15 16 17 18 20 22 24 26 27 28 29 30 30 31 32 33 33 34 35 36 37 38 40 42 43 44 45 45 46 46 46 46 46 46 46
16 17 17 17 17 18 18 19 20 21 22 22 24 25 27 29 31 33 35 36 37 37 38 38 39 40 41 42 43 45 47 48 49 50 50 51 51 50 50 49 49 48 48
20 21 22 22 22 23 24 25 26 27 28 29 29 31 32 34 37 39 42 43 44 45 46 47 47 48 49 50 51 52 54 55 55 56 56 57 56 55 53 52 51 50 49
26 27 29 29 30 30 31 32 33 34 35 35 36 37 38 40 42 44 46 47 49 50 52 53 54 54 56 57 58 59 60 61 60 60 60 60 59 58 57 56 55 53 52
31 33 34 35 36 37 38 38 39 40 41 41 42 43 44 45 46 47 48 50 51 52 54 55 56 58 60 61 62 63 64 64 63 62 62 61 61 60 60 59 58 57 56
35 37 38 40 41 42 43 43 44 45 45 46 46 47 47 48 49 49 50 51 52 53 55 56 58 59 61 62 63 64 65 65 64 63 62 61 61 61 61 60 59 58 58
38 40 42 44 45 46 47 47 48 49 49 49 49 49 50 50 50 50 51 52 53 54 56 58 59 61 62 63 64 64 64 64 63 62 62 62 62 61 60 59 58 58 58
41 44 46 47 48 49 49 49 50 50 51 51 51 51 50 50 50 51 51 53 55 57 59 61 63 64 65 65 65 64 63 62 62 62 63 62 61 60 59 58 57 56 56
44 46 47 48 48 48 48 49 49 50 51 52 53 52 51 50 51 53 55 57 59 61 62 64 65 66 66 65 64 63 64 64 64 64 62 61 59 58 57 56 55 54 54
45 45 47 47 48 48 48 47 47 48 49 51 52 53 53 54 55 56 60 62 64 64 65 66 66 65 64 64 65 65 66 66 66 65 62 59 57 56 55 55 54 53 52
44 46 47 48 48 48 48 47 47 48 49 51 54 56 58 59 61 60 60 62 63 64 64 63 62 63 64 66 67 68 68 68 67 64 61 59 57 56 55 54 53 51 49
44 46 47 47 47 48 48 48 49 50 53 56 58 60 62 63 63 61 59 59 59 59 61 62 63 65 67 69 70 70 69 68 66 64 61 59 56 55 54 54 52 49 47
45 46 46 47 48 48 49 50 53 55 57 59 61 62 62 61 61 61 61 61 60 61 62 64 67 69 71 72 72 72 71 69 68 66 64 61 58 56 55 53 52 49 47
46 46 47 48 49 50 52 54 57 59 60 61 61 61 61 62 64 66 66 66 65 63 64 66 70 72 74 74 73 73 72 71 70 68 65 63 60 58 56 54 52 51 49
48 49 50 51 53 55 56 58 60 61 61 62 63 63 63 65 67 68 68 68 67 66 65 68 71 74 75 75 74 74 73 72 71 70 67 65 63 60 57 56 55 53 52
51 52 54 56 58 60 61 62 62 63 63 64 64 65 67 67 68 68 67 68 68 69 68 70 74 76 77 76 74 73 69 67 65 63 62 61 60 59 58 57 57 56 56
55 57 59 60 62 64 64 64 64 64 64 65 66 66 66 66 66 65 65 67 69 72 73 72 74 74 73 69 65 60 56 53 51 50 50 50 51 52 53 54 56 57 58
60 61 62 62 63 63 63 63 63 62 62 63 62 61 61 60 61 63 65 68 71 73 73 72 67 62 58 55 52 49 46 43 40 39 39 41 42 44 46 48 51 54 57
64 64 63 63 63 62 61 61 61 60 59 59 58 57 57 58 61 63 66 68 69 69 67 62 55 50 48 45 43 40 37 34 32 31 33 34 36 37 39 41 43 47 52
65 64 62 62 62 63 62 60 58 56 55 55 55 55 57 59 61 63 65 65 63 58 54 50 45 41 38 37 34 30 27 26 25 25 26 27 28 30 32 34 37 40 45
63 61 61 61 60 60 58 56 54 53 53 53 54 56 58 60 61 62 60 56 51 46 42 38 34 31 29 27 25 22 20 20 20 20 21 22 24 25 27 30 33 36 39
59 58 58 58 57 55 53 52 51 52 53 54 55 56 57 58 57 53 48 44 40 36 31 27 24 22 20 19 18 16 15 16 16 17 16 17 18 19 22 25 28 32 34
56 56 56 55 53 51 50 49 50 52 53 54 54 54 52 50 45 39 35 33 30 26 22 19 17 16 15 14 13 12 12 12 12 12 11 11 11 12 16 19 23 25 28
53 53 51 49 48 47 48 49 50 51 51 51 49 46 41 36 31 28 25 23 21 18 16 14 12 12 11 11 10 9 9 9 9 9 8 8 8 8 10 12 14 17 19
48 47 46 46 46 47 47 47 47 47 45 43 39 34 30 25 23 20 18 16 14 12 11 10 10 9 9 8 8 9 9 9 9 9 8 8 9 9 9 10 11 12 14
44 44 44 44 44 44 43 41 40 38 36 33 29 26 22 20 17 15 12 10 9 9 9 8 9 8 9 9 9 10 11 12 12 12 12 12 12 12 12 11 11 11 13
Wind_Direction
307 306 305 304 303 302 299 296 290 287 285 283 281 279 278 278 279 281 282 282 282 281 280 279 278 277 276 275 275 276 277 277 277 277 277 277 276 275 275 274 274 273 272
311 309 309 308 304 299 294 290 286 283 280 278 279 279 280 281 281 280 281 281 280 280 280 279 278 277 277 276 276 277 277 277 277 277 277 276 276 275 274 274 273 273 272
313 311 310 309 305 301 297 293 291 288 286 285 285 285 285 285 285 284 284 284 283 282 281 280 279 277 277 277 277 277 278 278 278 278 277 277 276 275 274 273 272 271 271
311 310 310 310 310 308 305 302 298 295 292 290 289 287 286 286 285 284 284 285 284 283 282 282 281 280 280 280 280 280 280 279 279 279 278 278 277 276 275 274 273 271 270
305 305 306 306 307 306 305 302 299 296 293 292 290 289 289 289 288 288 288 287 286 285 285 284 284 283 282 282 281 282 282 281 281 280 279 279 278 277 276 275 273 272 270
298 299 300 301 301 301 300 298 296 294 292 292 291 292 292 291 291 291 290 290 289 288 287 287 286 285 284 284 283 284 284 283 283 282 281 279 278 277 276 275 273 272 270
292 293 295 296 297 297 297 295 293 291 290 290 291 292 292 292 290 290 290 289 289 288 288 287 287 286 286 285 285 284 284 284 283 282 281 280 279 277 275 273 272 270 268
289 290 291 293 295 297 296 294 292 289 288 288 290 291 292 292 291 291 290 289 289 288 287 287 287 287 286 285 285 284 284 284 283 283 282 281 280 277 275 272 270 268 266
285 286 289 293 295 297 297 295 292 289 288 289 290 291 291 291 291 291 290 289 287 286 285 285 286 287 287 286 285 285 284 284 284 284 283 281 279 276 272 269 267 265 263
287 290 293 296 297 297 296 295 292 291 291 292 292 292 291 290 290 288 288 288 287 287 287 287 288 287 286 285 284 284 284 285 284 284 282 279 276 272 268 265 263 262 260
294 295 296 296 296 295 295 293 293 294 293 293 292 292 291 291 290 289 288 289 290 290 289 288 287 286 285 285 285 285 285 284 284 283 281 277 273 269 265 262 261 259 257
295 295 295 296 295 295 294 294 294 295 294 293 292 291 291 291 292 292 292 292 291 290 289 288 287 286 286 285 285 285 284 284 282 281 279 276 272 267 264 261 259 257 254
294 294 294 295 295 294 293 292 292 292 292 291 291 291 292 293 293 293 294 293 292 289 287 287 286 286 286 286 286 286 284 282 281 278 276 273 270 266 262 259 257 254 250
294 294 294 295 295 294 292 292 292 292 291 291 291 291 291 293 294 294 294 293 291 289 288 287 287 288 287 287 286 284 283 281 279 276 274 271 267 264 260 257 253 250 247
294 295 296 295 295 294 292 291 291 292 293 293 293 292 293 295 295 295 294 292 290 289 287 287 288 288 287 287 285 284 281 279 277 274 271 268 265 261 258 254 251 247 244
294 296 297 297 296 293 292 292 293 293 295 296 296 295 296 296 295 294 293 292 291 290 289 289 288 288 288 287 286 285 283 280 277 273 269 266 262 259 255 251 248 245 242
295 296 298 298 297 295 293 293 293 294 296 296 297 297 297 296 295 294 293 293 293 293 293 292 291 291 290 289 288 286 284 281 276 271 266 262 259 255 252 248 246 243 241
296 297 298 297 297 296 295 296 297 297 298 299 298 297 297 296 294 294 295 295 295 295 295 294 294 294 293 291 289 287 284 281 276 269 264 259 256 253 250 247 244 242 240
294 295 296 295 295 296 298 300 300 300 300 299 298 297 297 297 297 297 297 296 296 296 297 298 298 295 293 291 290 288 286 282 275 268 263 259 256 253 250 247 244 241 239
294 294 294 294 296 298 301 302 302 300 299 299 298 298 298 298 297 297 297 297 298 299 300 300 300 297 294 292 292 291 287 283 277 270 265 261 257 253 249 245 242 240 238
294 294 295 296 299 301 302 302 301 300 299 299 299 299 299 298 297 297 298 300 301 302 302 302 301 298 296 296 296 293 289 284 280 276 269 264 259 254 248 244 241 240 238
294 295 297 299 300 302 301 301 300 300 300 300 300 299 298 298 298 300 302 304 305 307 309 309 308 305 304 304 302 299 294 290 287 287 282 273 266 256 250 246 243 242 241
297 298 300 301 301 301 302 301 301 301 301 300 300 299 298 299 302 305 306 308 311 314 317 318 316 315 315 316 315 314 312 307 302 302 297 283 275 262 255 250 247 245 243
298 299 300 300 301 302 302 302 302 301 301 300 300 300 302 304 307 310 313 315 319 323 326 328 329 330 331 331 332 332 330 325 320 316 308 293 285 273 263 255 249 245 241
299 300 301 302 303 303 303 303 303 302 302 302 304 305 308 311 314 318 321 326 331 336 339 341 344 346 347 348 347 344 339 332 323 317 308 294 285 280 273 266 258 249 242
301 302 304 305 305 305 305 305 306 306 307 309 310 313 317 322 327 331 336 342 349 354 356 358 356 354 350 347 343 337 329 321 313 304 297 290 283 278 275 272 265 253 245
Height
5869 5868 5867 5866 5864 5862 5861 5859 5857 5856 5854 5853 5851 5849 5847 5845 5844 5842 5841 5840 5838 5837 5836 5835 5833 5832 5831 5830 5829 5827 5827 5826 5825 5824 5823 5823 5822 5822 5822 5822 5823 5823 5824
5866 5864 5863 5862 5860 5859 5857 5856 5854 5852 5850 5848 5846 5844 5841 5839 5836 5834 5833 5831 5830 5829 5828 5826 5825 5824 5822 5821 5820 5818 5817 5815 5814 5813 5812 5812 5811 5811 5811 5811 5811 5812 5813
5864 5861 5859 5858 5856 5854 5852 5850 5847 5845 5843 5841 5839 5837 5834 5832 5829 5826 5824 5822 5821 5819 5818 5816 5815 5813 5812 5810 5808 5807 5805 5803 5801 5800 5799 5798 5797 5797 5797 5797 5798 5799 5800
5858 5856 5853 5851 5849 5847 5845 5842 5840 5837 5835 5833 5831 5829 5827 5825 5822 5819 5816 5814 5811 5809 5807 5805 5803 5801 5799 5797 5795 5793 5791 5789 5787 5785 5784 5783 5782 5781 5781 5782 5782 5784 5785
5851 5849 5846 5844 5842 5840 5838 5836 5833 5830 5827 5825 5823 5821 5818 5815 5812 5809 5807 5803 5800 5797 5794 5792 5790 5787 5784 5782 5780 5778 5775 5773 5772 5770 5768 5767 5766 5765 5764 5765 5766 5767 5769
5845 5842 5840 5838 5836 5834 5831 5829 5826 5822 5819 5817 5814 5812 5808 5805 5801 5798 5795 5792 5788 5784 5781 5778 5776 5773 5770 5767 5765 5762 5759 5757 5755 5754 5752 5751 5749 5748 5747 5747 5748 5749 5751
5838 5835 5833 5831 5828 5826 5823 5820 5817 5813 5810 5808 5805 5803 5799 5794 5791 5787 5783 5780 5776 5772 5768 5764 5761 5758 5754 5752 5749 5746 5743 5741 5739 5737 5735 5734 5732 5730 5729 5729 5730 5731 5733
5829 5826 5824 5821 5819 5816 5813 5810 5806 5803 5800 5797 5795 5792 5789 5785 5779 5775 5771 5767 5763 5759 5754 5750 5746 5742 5738 5735 5732 5729 5727 5725 5723 5721 5718 5716 5714 5712 5711 5711 5712 5713 5715
5820 5817 5814 5812 5809 5806 5802 5799 5795 5792 5788 5785 5782 5779 5776 5773 5768 5764 5758 5753 5749 5744 5739 5734 5730 5725 5721 5718 5715 5712 5709 5707 5705 5702 5700 5698 5695 5694 5693 5693 5694 5695 5697
5810 5808 5805 5802 5799 5795 5792 5788 5784 5781 5777 5773 5769 5766 5763 5759 5755 5752 5745 5738 5733 5728 5723 5719 5713 5708 5704 5700 5697 5694 5691 5688 5686 5684 5682 5679 5677 5676 5675 5676 5677 5679 5681
5802 5799 5795 5792 5788 5785 5781 5778 5774 5770 5766 5762 5757 5752 5748 5743 5739 5736 5732 5726 5718 5712 5707 5702 5697 5691 5686 5682 5678 5675 5671 5668 5666 5664 5662 5661 5659 5659 5658 5659 5661 5663 5665
5794 5790 5786 5782 5778 5775 5771 5767 5762 5759 5754 5749 5744 5738 5733 5728 5723 5718 5715 5711 5705 5698 5691 5685 5679 5673 5668 5663 5658 5654 5651 5648 5646 5644 5642 5642 5641 5641 5642 5643 5645 5648 5651
5785 5781 5777 5773 5769 5765 5761 5756 5752 5747 5741 5736 5730 5724 5719 5713 5708 5703 5698 5694 5689 5684 5677 5669 5660 5654 5648 5642 5637 5633 5630 5627 5625 5624 5623 5622 5623 5624 5625 5627 5630 5634 5637
5776 5772 5767 5763 5758 5754 5749 5744 5739 5733 5728 5722 5716 5710 5705 5698 5692 5686 5681 5675 5672 5668 5661 5653 5642 5634 5627 5621 5616 5611 5607 5605 5603 5602 5602 5602 5603 5604 5607 5610 5614 5618 5623
5765 5761 5756 5752 5747 5742 5736 5730 5725 5719 5713 5707 5701 5695 5689 5683 5676 5669 5662 5655 5651 5648 5645 5635 5624 5615 5606 5600 5594 5589 5585 5582 5580 5579 5580 5581 5582 5584 5588 5592 5596 5601 5607
5754 5749 5744 5739 5734 5728 5722 5716 5710 5704 5698 5692 5686 5679 5673 5666 5658 5651 5644 5636 5629 5624 5623 5616 5604 5594 5585 5578 5572 5566 5562 5559 5557 5556 5557 5558 5561 5564 5568 5572 5577 5583 5589
5742 5737 5731 5725 5719 5712 5706 5700 5694 5689 5683 5676 5670 5663 5656 5649 5641 5634 5626 5618 5610 5602 5598 5595 5582 5573 5564 5557 5551 5546 5542 5539 5537 5537 5537 5538 5541 5544 5548 5553 5558 5565 5571
5729 5723 5717 5711 5704 5698 5691 5685 5679 5673 5667 5661 5654 5646 5639 5632 5624 5617 5609 5601 5591 5582 5574 5571 5564 5554 5546 5539 5534 5530 5527 5524 5522 5522 5522 5524 5526 5528 5531 5536 5541 5547 5553
5715 5709 5703 5697 5690 5683 5677 5671 5664 5658 5651 5645 5638 5631 5624 5616 5609 5601 5593 5584 5574 5564 5555 5549 5546 5539 5532 5526 5521 5518 5514 5512 5511 5510 5511 5512 5513 5515 5518 5522 5526 5532 5538
5701 5695 5689 5683 5676 5669 5662 5656 5649 5643 5636 5630 5623 5616 5609 5601 5594 5586 5577 5568 5559 5551 5543 5536 5531 5526 5520 5515 5511 5508 5506 5503 5502 5502 5501 5502 5503 5505 5508 5511 5515 5519 5524
5686 5680 5675 5669 5662 5655 5648 5642 5635 5628 5622 5615 5608 5601 5594 5586 5578 5570 5562 5554 5546 5539 5533 5526 5521 5516 5512 5507 5504 5502 5500 5497 5496 5495 5495 5495 5495 5497 5498 5501 5505 5509 5513
5672 5666 5660 5654 5648 5642 5635 5628 5621 5615 5608 5602 5595 5587 5579 5572 5564 5557 5549 5542 5535 5529 5524 5519 5514 5510 5507 5503 5500 5497 5495 5494 5492 5491 5490 5490 5489 5491 5492 5494 5496 5499 5503
5658 5652 5647 5641 5635 5628 5622 5615 5608 5601 5595 5588 5581 5574 5566 5559 5553 5547 5540 5534 5528 5522 5518 5514 5511 5507 5504 5501 5498 5495 5493 5491 5489 5487 5486 5486 5485 5486 5486 5488 5489 5491 5494
5645 5639 5633 5627 5622 5616 5609 5603 5595 5588 5581 5574 5568 5561 5555 5550 5544 5539 5534 5529 5524 5519 5515 5512 5509 5506 5503 5500 5497 5494 5492 5490 5488 5486 5485 5484 5483 5483 5483 5484 5484 5485 5487
5632 5626 5621 5615 5610 5603 5597 5590 5583 5575 5568 5562 5557 5552 5547 5543 5538 5534 5529 5525 5522 5518 5515 5512 5509 5506 5503 5500 5497 5494 5492 5490 5488 5486 5484 5483 5482 5481 5481 5481 5481 5481 5482
5620 5615 5609 5604 5598 5591 5585 5578 5572 5565 5559 5553 5549 5545 5541 5538 5534 5530 5527 5524 5521 5518 5515 5513 5509 5506 5503 5500 5497 5494 5491 5489 5486 5484 5482 5481 5479 5478 5478 5478 5478 5478 5479